Regional Weather Roundup
Issued by NWS

Home | Current Version | Previous Version | Graphics & Text | Print | Product List | Glossary On
Versions: 1 2 3 4 5 6 7 8 9 10 11 12 13 14 15 16 17 18 19 20 21 22 23 24 25 26 27 28
000
ASUS45 KCYS 250010
RWRWY

WYOMING REGIONAL WEATHER ROUNDUP
NATIONAL WEATHER SERVICE CHEYENNE WY
600 PM MDT WED MAY 24 2017

NOTE:  "FAIR" INDICATES FEW OR NO CLOUDS BELOW 12,000 FEET
WITH NO SIGNIFICANT WEATHER AND/OR OBSTRUCTIONS TO VISIBILITY.

WYZ001-250100-
YELLOWSTONE NATIONAL PARK

CITY           SKY/WX    TMP DP  RH WIND       PRES   REMARKS
LK YELLOWSTONE   N/A     57  24  28 W13G33    29.62F
6HR MIN TEMP:  57; 6HR MAX TEMP:  62;

W YELLOWSTONE  NOT AVBL

$$
WYZ002>013-054>058-071-098>099-250100-
NORTHERN WYOMING

CITY           SKY/WX    TMP DP  RH WIND       PRES   REMARKS
JACKSON        NOT AVBL
CODY           FAIR      76  24  14 W16G25    29.42R
GREYBULL       FAIR      82  35  18 NW24G43   29.30R
6HR MIN TEMP:  78; 6HR MAX TEMP:  88;

WORLAND        FAIR      82  29  14 SW31G40   29.33S
6HR MIN TEMP:  76; 6HR MAX TEMP:  85;

SHERIDAN       FAIR      69  47  45 NW36G44   29.34R
6HR MIN TEMP:  69; 6HR MAX TEMP:  85;

BUFFALO        FAIR      81  34  18 W14G23    29.38R
6HR MIN TEMP:  78; 6HR MAX TEMP:  83;

GILLETTE       FAIR      80  43  26 SW20G28   29.31F
6HR MIN TEMP:  73; 6HR MAX TEMP:  80;

HULETT         FAIR      79  45  29 S18G25    29.32F
NEWCASTLE      FAIR      79  41  25 SE21G31   29.38F

$$
WYZ014>020-022>026-101>103-250100-
CENTRAL WYOMING

CITY           SKY/WX    TMP DP  RH WIND       PRES   REMARKS
BIG PINEY      LGT RAIN  55  49  80 N6        29.72F
6HR MIN TEMP:  52; 6HR MAX TEMP:  72; 6HR PCP:  0.03;

PINEDALE       RAIN      50  46  87 SW26G38   29.74R
DUBOIS           N/A     63  27  25 NW39G49   29.56
LANDER         FAIR      72  38  29 SW12G18   29.52F
6HR MIN TEMP:  69; 6HR MAX TEMP:  78; 6HR PCP: TRACE;

RIVERTON       FAIR      75  36  24 SW24G33   29.49F
6HR MIN TEMP:  74; 6HR MAX TEMP:  79;

CASPER         FAIR      77  37  23 W23G45    29.48F
6HR MIN TEMP:  75; 6HR MAX TEMP:  81; 6HR PCP: TRACE;

DOUGLAS        FAIR      81  38  21 W26G35    29.44F
6HR MIN TEMP:  75; 6HR MAX TEMP:  82;


$$
WYZ021-027>030-104>119-250100-
SOUTHERN WYOMING

CITY           SKY/WX    TMP DP  RH WIND       PRES   REMARKS
EVANSTON       FAIR      68  33  27 SW25G40   29.72F
6HR MIN TEMP:  68; 6HR MAX TEMP:  73;

KEMMERER         N/A     63  41  45 NW14      29.71F
FORT BRIDGER   FAIR      74  29  19 W25G38    29.75F
ROCK SPRINGS   FAIR      72  27  18 W31G44    29.68F
6HR MIN TEMP:  70; 6HR MAX TEMP:  76;

DIXON            N/A     70  34  26 W13       29.73F
RAWLINS        FAIR      73  30  20 W32G49    29.67S
6HR MIN TEMP:  71; 6HR MAX TEMP:  77;

LARAMIE        FAIR      68  32  26 W25G38    29.71S
6HR MIN TEMP:  67; 6HR MAX TEMP:  74;

CHEYENNE       FAIR      76  35  22 W26G35    29.62F
6HR MIN TEMP:  73; 6HR MAX TEMP:  77;

TORRINGTON     FAIR      85  36  17 W15       29.42F
6HR MIN TEMP:  71; 6HR MAX TEMP:  86;

PINE BLUFFS    FAIR      79  34  19 W15G23    29.57F

$$




USA.gov is the U.S. government's official web portal to all federal, state and local government web resources and services.